| time (UTC) | temp C | wind direction | speed KPH | gust KPH | rain 1hr cm | rain 24hr cm | rain mn cm | humidity % | barometer mb |
| 20260505114500 | 20 | 212 | 20.9 | 22.5 | 0.00 | 0.00 | 0.00 | 92 | 1003.4 |
| 20260505114000 | 20 | 193 | 16.1 | 22.5 | 0.00 | 0.00 | 0.00 | 92 | 1003.3 |
| 20260505113530 | 20 | 199 | 11.3 | 19.3 | 0.00 | 0.00 | 0.00 | 92 | 1003.3 |
| 20260505112459 | 20 | 200 | 17.7 | 20.9 | 0.00 | 0.00 | 0.00 | 92 | 1003.3 |
| 20260505111959 | 20 | 190 | 11.3 | 22.5 | 0.00 | 0.00 | 0.00 | 92 | 1003.4 |
| 20260505111459 | 20 | 204 | 16.1 | 22.5 | 0.00 | 0.00 | 0.00 | 92 | 1003.4 |
| 20260505111000 | 20 | 208 | 22.5 | 22.5 | 0.00 | 0.00 | 0.00 | 92 | 1003.3 |
| 20260505110500 | 20 | 203 | 17.7 | 20.9 | 0.00 | 0.00 | 0.00 | 92 | 1003.4 |
| 20260505102000 | 20 | 207 | 20.9 | 30.6 | 0.00 | 0.00 | 0.00 | 89 | 1003.3 |
| 20260505101500 | 20 | 208 | 25.7 | 30.6 | 0.00 | 0.00 | 0.00 | 89 | 1003.3 |
| 20260505101000 | 20 | 208 | 14.5 | 27.4 | 0.00 | 0.00 | 0.00 | 89 | 1003.4 |
| 20260505095500 | 20 | 194 | 19.3 | 27.4 | 0.00 | 0.00 | 0.00 | 88 | 1003.4 |
| 20260505094459 | 20 | 195 | 19.3 | 29.0 | 0.00 | 0.00 | 0.00 | 88 | 1003.4 |
| 20260505094000 | 21 | 201 | 14.5 | 29.0 | 0.00 | 0.00 | 0.00 | 87 | 1003.5 |
| 20260505092500 | 21 | 185 | 19.3 | 24.1 | 0.00 | 0.00 | 0.00 | 86 | 1003.2 |
| 20260505092000 | 21 | 196 | 16.1 | 24.1 | 0.00 | 0.00 | 0.00 | 86 | 1003.3 |
| 20260505091500 | 21 | 179 | 17.7 | 25.7 | 0.00 | 0.00 | 0.00 | 85 | 1003.3 |
| 20260505091000 | 21 | 194 | 22.5 | 30.6 | 0.00 | 0.00 | 0.00 | 85 | 1003.4 |
| 20260505090500 | 21 | 207 | 25.7 | 30.6 | 0.00 | 0.00 | 0.00 | 84 | 1003.5 |
| 20260505090000 | 21 | 198 | 16.1 | 29.0 | 0.00 | 0.00 | 0.00 | 84 | 1003.6 |
| 20260505085500 | 21 | 209 | 25.7 | 29.0 | 0.00 | 0.00 | 0.00 | 83 | 1003.5 |
| 20260505085000 | 21 | 195 | 20.9 | 29.0 | 0.00 | 0.00 | 0.00 | 83 | 1003.5 |
| 20260505084530 | 21 | 201 | 20.9 | 29.0 | 0.00 | 0.00 | 0.00 | 83 | 1003.4 |
| 20260505084000 | 21 | 189 | 19.3 | 29.0 | 0.00 | 0.00 | 0.00 | 82 | 1003.5 |
| 20260505083500 | 21 | 197 | 19.3 | 32.2 | 0.00 | 0.00 | 0.00 | 81 | 1003.6 |
| 20260505083000 | 21 | 186 | 22.5 | 33.8 | 0.00 | 0.00 | 0.00 | 81 | 1003.4 |
| 20260505082500 | 21 | 211 | 32.2 | 33.8 | 0.00 | 0.00 | 0.00 | 80 | 1003.4 |
| 20260505082000 | 21 | 195 | 22.5 | 32.2 | 0.00 | 0.00 | 0.00 | 80 | 1003.5 |
| 20260505081500 | 21 | 195 | 17.7 | 32.2 | 0.00 | 0.00 | 0.00 | 80 | 1003.6 |
| 20260505081000 | 21 | 207 | 19.3 | 32.2 | 0.00 | 0.00 | 0.00 | 80 | 1003.6 |
| 20260505080500 | 22 | 198 | 17.7 | 32.2 | 0.00 | 0.00 | 0.00 | 79 | 1003.5 |
| 20260505080000 | 21 | 202 | 24.1 | 25.7 | 0.00 | 0.00 | 0.00 | 79 | 1003.5 |
| 20260505075500 | 22 | 181 | 20.9 | 29.0 | 0.00 | 0.00 | 0.00 | 79 | 1003.5 |
| 20260505074500 | 22 | 201 | 22.5 | 27.4 | 0.00 | 0.00 | 0.00 | 78 | 1003.8 |
| 20260505074000 | 22 | 208 | 19.3 | 25.7 | 0.00 | 0.00 | 0.00 | 78 | 1003.9 |
| 20260505073500 | 22 | 185 | 16.1 | 25.7 | 0.00 | 0.00 | 0.00 | 78 | 1004.0 |
| 20260505073000 | 22 | 199 | 17.7 | 24.1 | 0.00 | 0.00 | 0.00 | 78 | 1004.1 |
| 20260505072500 | 22 | 202 | 20.9 | 25.7 | 0.00 | 0.00 | 0.00 | 77 | 1004.2 |
| 20260505072000 | 22 | 187 | 14.5 | 29.0 | 0.00 | 0.00 | 0.00 | 77 | 1004.5 |
| 20260505071500 | 22 | 195 | 20.9 | 30.6 | 0.00 | 0.00 | 0.00 | 76 | 1004.5 |
| 20260505071000 | 22 | 207 | 24.1 | 30.6 | 0.00 | 0.00 | 0.00 | 76 | 1004.6 |
| 20260505070000 | 22 | 209 | 24.1 | 29.0 | 0.00 | 0.00 | 0.00 | 75 | 1004.6 |
| 20260505065500 | 22 | 203 | 20.9 | 29.0 | 0.00 | 0.00 | 0.00 | 75 | 1004.7 |
| 20260505065000 | 22 | 203 | 27.4 | 32.2 | 0.00 | 0.00 | 0.00 | 74 | 1004.6 |
| 20260505064500 | 22 | 200 | 19.3 | 32.2 | 0.00 | 0.00 | 0.00 | 74 | 1004.7 |
| 20260505064000 | 22 | 193 | 20.9 | 29.0 | 0.00 | 0.00 | 0.00 | 74 | 1004.7 |
| 20260505063500 | 23 | 195 | 20.9 | 29.0 | 0.00 | 0.00 | 0.00 | 74 | 1004.8 |
| 20260505063000 | 23 | 196 | 27.4 | 30.6 | 0.00 | 0.00 | 0.00 | 73 | 1004.7 |
| 20260505062500 | 23 | 208 | 22.5 | 33.8 | 0.00 | 0.00 | 0.00 | 73 | 1004.7 |
| 20260505062000 | 23 | 199 | 17.7 | 33.8 | 0.00 | 0.00 | 0.00 | 73 | 1004.7 |
| 20260505061500 | 23 | 197 | 25.7 | 29.0 | 0.00 | 0.00 | 0.00 | 72 | 1004.8 |
| 20260505060500 | 23 | 189 | 24.1 | 41.8 | 0.00 | 0.00 | 0.00 | 72 | 1004.9 |
| 20260505060000 | 23 | 194 | 27.4 | 41.8 | 0.00 | 0.00 | 0.00 | 71 | 1005.0 |
| 20260505055500 | 23 | 205 | 24.1 | 27.4 | 0.00 | 0.00 | 0.00 | 71 | 1005.1 |
| 20260505055000 | 23 | 176 | 20.9 | 30.6 | 0.00 | 0.00 | 0.00 | 72 | 1005.0 |
| 20260505054000 | 23 | 190 | 29.0 | 30.6 | 0.00 | 0.00 | 0.00 | 71 | 1004.9 |
| 20260505053000 | 23 | 196 | 14.5 | 30.6 | 0.00 | 0.00 | 0.00 | 72 | 1005.0 |
| 20260505052000 | 23 | 181 | 19.3 | 29.0 | 0.00 | 0.00 | 0.00 | 72 | 1005.0 |
| 20260505051530 | 23 | 175 | 22.5 | 25.7 | 0.00 | 0.00 | 0.00 | 73 | 1005.0 |
| 20260505051001 | 23 | 192 | 25.7 | 25.7 | 0.00 | 0.00 | 0.00 | 73 | 1005.0 |
| 20260505050500 | 23 | 175 | 22.5 | 22.5 | 0.00 | 0.00 | 0.00 | 74 | 1005.1 |
| 20260505041500 | 22 | 170 | 16.1 | 29.0 | 0.00 | 0.00 | 0.00 | 75 | 1005.4 |
| 20260505040000 | 22 | 165 | 17.7 | 22.5 | 0.00 | 0.00 | 0.00 | 75 | 1005.4 |
| 20260505035500 | 22 | 169 | 17.7 | 20.9 | 0.00 | 0.00 | 0.00 | 75 | 1005.4 |
| 20260505035000 | 22 | 180 | 12.9 | 22.5 | 0.00 | 0.00 | 0.00 | 75 | 1005.4 |
| 20260505034500 | 22 | 165 | 14.5 | 24.1 | 0.00 | 0.00 | 0.00 | 74 | 1005.5 |
| 20260505033500 | 23 | 177 | 20.9 | 27.4 | 0.00 | 0.00 | 0.00 | 74 | 1005.3 |
| 20260505033000 | 23 | 166 | 20.9 | 29.0 | 0.00 | 0.00 | 0.00 | 73 | 1005.3 |
| 20260505032531 | 23 | 183 | 17.7 | 32.2 | 0.00 | 0.00 | 0.00 | 73 | 1005.2 |
| 20260505032000 | 23 | 160 | 19.3 | 32.2 | 0.00 | 0.00 | 0.00 | 73 | 1005.2 |
| 20260505031502 | 23 | 154 | 25.7 | 30.6 | 0.00 | 0.00 | 0.00 | 73 | 1005.2 |
| 20260505031000 | 22 | 166 | 16.1 | 27.4 | 0.00 | 0.00 | 0.00 | 74 | 1005.2 |
| 20260505030500 | 22 | 0 | 0.0 | 27.4 | 0.00 | 0.00 | 0.00 | 74 | 1005.4 |
| 20260505025500 | 22 | 158 | 20.9 | 20.9 | 0.00 | 0.00 | 0.00 | 74 | 1005.5 |
| 20260505025000 | 22 | 162 | 14.5 | 20.9 | 0.00 | 0.00 | 0.00 | 75 | 1005.5 |
| 20260505024501 | 22 | 145 | 17.7 | 24.1 | 0.00 | 0.00 | 0.00 | 75 | 1005.5 |
| 20260505024000 | 22 | 0 | 0.0 | 24.1 | 0.00 | 0.00 | 0.00 | 74 | 1005.5 |
| 20260505023500 | 22 | 0 | 0.0 | 22.5 | 0.00 | 0.00 | 0.00 | 74 | 1005.5 |
| 20260505023001 | 22 | 0 | 0.0 | 22.5 | 0.00 | 0.00 | 0.00 | 74 | 1005.4 |
| 20260505022500 | 22 | 0 | 0.0 | 24.1 | 0.00 | 0.00 | 0.00 | 74 | 1005.4 |
| 20260505022000 | 22 | 159 | 24.1 | 27.4 | 0.00 | 0.00 | 0.00 | 74 | 1005.4 |
| 20260505021000 | 22 | 0 | 0.0 | 22.5 | 0.00 | 0.00 | 0.00 | 74 | 1005.5 |
| 20260505020500 | 22 | 0 | 0.0 | 19.3 | 0.00 | 0.00 | 0.00 | 74 | 1005.6 |
| 20260505020000 | 23 | 155 | 17.7 | 20.9 | 0.00 | 0.00 | 0.00 | 73 | 1005.6 |
| 20260505015000 | 23 | 0 | 0.0 | 24.1 | 0.00 | 0.00 | 0.00 | 72 | 1005.3 |
| 20260505014500 | 23 | 0 | 0.0 | 24.1 | 0.00 | 0.00 | 0.00 | 71 | 1005.2 |
| 20260505014000 | 23 | 162 | 16.1 | 24.1 | 0.00 | 0.00 | 0.00 | 71 | 1005.3 |
| 20260505013500 | 23 | 175 | 17.7 | 24.1 | 0.00 | 0.00 | 0.00 | 71 | 1005.2 |
| 20260505013000 | 23 | 166 | 12.9 | 20.9 | 0.00 | 0.00 | 0.00 | 71 | 1005.3 |
| 20260505012501 | 23 | 171 | 16.1 | 24.1 | 0.00 | 0.00 | 0.00 | 70 | 1005.2 |
| 20260505012001 | 23 | 165 | 17.7 | 24.1 | 0.00 | 0.00 | 0.00 | 70 | 1005.2 |
| 20260505011500 | 23 | 171 | 14.5 | 20.9 | 0.00 | 0.00 | 0.00 | 69 | 1005.3 |
| 20260505011000 | 23 | 169 | 19.3 | 20.9 | 0.00 | 0.00 | 0.00 | 69 | 1005.3 |
| 20260505010500 | 23 | 171 | 17.7 | 24.1 | 0.00 | 0.00 | 0.00 | 68 | 1005.3 |
| 20260505010000 | 24 | 163 | 17.7 | 24.1 | 0.00 | 0.00 | 0.00 | 68 | 1005.3 |
| 20260505005001 | 24 | 177 | 17.7 | 27.4 | 0.00 | 0.00 | 0.00 | 66 | 1005.4 |
| 20260505004001 | 25 | 190 | 16.1 | 22.5 | 0.00 | 0.00 | 0.00 | 65 | 1005.4 |
| 20260505003500 | 25 | 175 | 16.1 | 24.1 | 0.00 | 0.00 | 0.00 | 64 | 1005.4 |
| 20260505003000 | 25 | 180 | 17.7 | 24.1 | 0.00 | 0.00 | 0.00 | 63 | 1005.4 |
| 20260505002000 | 25 | 179 | 12.9 | 24.1 | 0.00 | 0.00 | 0.00 | 63 | 1005.3 |
| 20260505001500 | 25 | 207 | 17.7 | 27.4 | 0.00 | 0.00 | 0.00 | 62 | 1005.4 |
| 20260505001000 | 25 | 170 | 22.5 | 27.4 | 0.00 | 0.00 | 0.00 | 61 | 1005.4 |
| 20260505000500 | 25 | 183 | 20.9 | 27.4 | 0.00 | 0.00 | 0.00 | 61 | 1005.4 |
| 20260505000000 | 25 | 180 | 24.1 | 30.6 | 0.00 | 0.00 | 0.00 | 60 | 1005.4 |
| 20260504235500 | 26 | 176 | 27.4 | 30.6 | 0.00 | 0.00 | 0.00 | 59 | 1005.5 |
| 20260504235000 | 26 | 205 | 24.1 | 35.4 | 0.00 | 0.00 | 0.00 | 59 | 1005.4 |
| 20260504234500 | 26 | 181 | 22.5 | 35.4 | 0.00 | 0.00 | 0.00 | 59 | 1005.3 |
| 20260504234000 | 26 | 187 | 20.9 | 32.2 | 0.00 | 0.00 | 0.00 | 59 | 1005.5 |
| 20260504233501 | 26 | 183 | 20.9 | 30.6 | 0.00 | 0.00 | 0.00 | 59 | 1005.5 |
| 20260504233000 | 26 | 192 | 17.7 | 32.2 | 0.00 | 0.00 | 0.00 | 59 | 1005.7 |
| 20260504232500 | 26 | 199 | 27.4 | 32.2 | 0.00 | 0.00 | 0.00 | 58 | 1005.6 |
| 20260504231531 | 26 | 182 | 20.9 | 35.4 | 0.00 | 0.00 | 0.00 | 59 | 1005.6 |
| 20260504230500 | 26 | 180 | 25.7 | 30.6 | 0.00 | 0.00 | 0.00 | 57 | 1005.4 |
| 20260504230000 | 26 | 183 | 19.3 | 33.8 | 0.00 | 0.00 | 0.00 | 57 | 1005.6 |
| 20260504225500 | 26 | 192 | 19.3 | 45.1 | 0.00 | 0.00 | 0.00 | 57 | 1005.7 |
| 20260504224500 | 27 | 199 | 29.0 | 37.0 | 0.00 | 0.00 | 0.00 | 55 | 1005.8 |
| 20260504224000 | 27 | 196 | 24.1 | 38.6 | 0.00 | 0.00 | 0.00 | 55 | 1005.7 |
| 20260504223501 | 27 | 203 | 35.4 | 38.6 | 0.00 | 0.00 | 0.00 | 54 | 1005.7 |
| 20260504223000 | 27 | 190 | 24.1 | 37.0 | 0.00 | 0.00 | 0.00 | 55 | 1005.9 |
| 20260504222500 | 27 | 193 | 22.5 | 37.0 | 0.00 | 0.00 | 0.00 | 54 | 1005.9 |
| 20260504222000 | 27 | 198 | 22.5 | 40.2 | 0.00 | 0.00 | 0.00 | 55 | 1006.1 |
| 20260504221500 | 27 | 188 | 27.4 | 40.2 | 0.00 | 0.00 | 0.00 | 54 | 1005.9 |
| 20260504221000 | 27 | 187 | 27.4 | 40.2 | 0.00 | 0.00 | 0.00 | 54 | 1005.9 |
| 20260504220030 | 27 | 172 | 29.0 | 35.4 | 0.00 | 0.00 | 0.00 | 54 | 1006.1 |
| 20260504215500 | 27 | 194 | 27.4 | 35.4 | 0.00 | 0.00 | 0.00 | 53 | 1006.0 |
| 20260504215000 | 27 | 197 | 32.2 | 37.0 | 0.00 | 0.00 | 0.00 | 53 | 1006.1 |
| 20260504214500 | 27 | 161 | 33.8 | 40.2 | 0.00 | 0.00 | 0.00 | 53 | 1006.1 |
| 20260504214000 | 27 | 178 | 40.2 | 40.2 | 0.00 | 0.00 | 0.00 | 53 | 1006.1 |
| 20260504213530 | 27 | 171 | 17.7 | 33.8 | 0.00 | 0.00 | 0.00 | 55 | 1006.5 |
| 20260504213000 | 27 | 177 | 33.8 | 33.8 | 0.00 | 0.00 | 0.00 | 54 | 1006.4 |
| 20260504212500 | 27 | 189 | 19.3 | 33.8 | 0.00 | 0.00 | 0.00 | 55 | 1006.7 |
| 20260504212000 | 27 | 180 | 24.1 | 33.8 | 0.00 | 0.00 | 0.00 | 55 | 1006.8 |
| 20260504210500 | 26 | 206 | 25.7 | 35.4 | 0.00 | 0.00 | 0.00 | 55 | 1007.0 |
| 20260504210031 | 27 | 181 | 24.1 | 35.4 | 0.00 | 0.00 | 0.00 | 55 | 1007.1 |
| 20260504205502 | 27 | 185 | 20.9 | 33.8 | 0.00 | 0.00 | 0.00 | 55 | 1007.1 |
| 20260504205030 | 26 | 164 | 30.6 | 32.2 | 0.00 | 0.00 | 0.00 | 55 | 1007.2 |
| 20260504204500 | 26 | 188 | 22.5 | 37.0 | 0.00 | 0.00 | 0.00 | 55 | 1007.3 |
| 20260504204031 | 26 | 201 | 29.0 | 37.0 | 0.00 | 0.00 | 0.00 | 55 | 1007.5 |
| 20260504203500 | 26 | 197 | 24.1 | 37.0 | 0.00 | 0.00 | 0.00 | 56 | 1007.6 |
| 20260504202500 | 26 | 178 | 20.9 | 35.4 | 0.00 | 0.00 | 0.00 | 55 | 1007.9 |
| 20260504202000 | 26 | 209 | 29.0 | 35.4 | 0.00 | 0.00 | 0.00 | 55 | 1007.8 |
| 20260504201500 | 26 | 198 | 35.4 | 38.6 | 0.00 | 0.00 | 0.00 | 55 | 1007.8 |
| 20260504201030 | 26 | 173 | 19.3 | 38.6 | 0.00 | 0.00 | 0.00 | 55 | 1008.0 |
| 20260504200000 | 26 | 192 | 22.5 | 43.5 | 0.00 | 0.00 | 0.00 | 56 | 1008.1 |
| 20260504195500 | 26 | 209 | 33.8 | 38.6 | 0.00 | 0.00 | 0.00 | 56 | 1008.1 |
| 20260504195000 | 26 | 194 | 25.7 | 35.4 | 0.00 | 0.00 | 0.00 | 54 | 1008.5 |
| 20260504194000 | 26 | 221 | 35.4 | 37.0 | 0.00 | 0.00 | 0.00 | 56 | 1008.6 |
| 20260504193530 | 25 | 189 | 17.7 | 37.0 | 0.00 | 0.00 | 0.00 | 56 | 1008.7 |
| 20260504193030 | 26 | 212 | 24.1 | 45.1 | 0.00 | 0.00 | 0.00 | 56 | 1008.7 |
| 20260504192530 | 26 | 218 | 22.5 | 45.1 | 0.00 | 0.00 | 0.00 | 57 | 1009.0 |
| 20260504192000 | 25 | 199 | 19.3 | 33.8 | 0.00 | 0.00 | 0.00 | 56 | 1008.8 |
| 20260504191500 | 25 | 194 | 25.7 | 33.8 | 0.00 | 0.00 | 0.00 | 57 | 1008.8 |
| 20260504191030 | 25 | 192 | 16.1 | 40.2 | 0.00 | 0.00 | 0.00 | 58 | 1008.9 |
| 20260504190531 | 25 | 166 | 30.6 | 40.2 | 0.00 | 0.00 | 0.00 | 56 | 1009.0 |
| 20260504190001 | 25 | 165 | 20.9 | 32.2 | 0.00 | 0.00 | 0.00 | 58 | 1009.2 |
| 20260504185500 | 25 | 165 | 32.2 | 40.2 | 0.00 | 0.00 | 0.00 | 56 | 1009.3 |
| 20260504185030 | 25 | 186 | 17.7 | 48.3 | 0.00 | 0.00 | 0.00 | 58 | 1009.6 |
| 20260504184500 | 25 | 179 | 19.3 | 48.3 | 0.00 | 0.00 | 0.00 | 58 | 1009.4 |
| 20260504184000 | 25 | 184 | 25.7 | 35.4 | 0.00 | 0.00 | 0.00 | 56 | 1009.4 |
| 20260504183501 | 25 | 199 | 25.7 | 35.4 | 0.00 | 0.00 | 0.00 | 57 | 1009.6 |
| 20260504183001 | 25 | 170 | 16.1 | 43.5 | 0.00 | 0.00 | 0.00 | 58 | 1009.8 |
| 20260504182500 | 24 | 210 | 22.5 | 43.5 | 0.00 | 0.00 | 0.00 | 59 | 1009.8 |
| 20260504182000 | 25 | 206 | 24.1 | 41.8 | 0.00 | 0.00 | 0.00 | 58 | 1009.8 |
| 20260504181500 | 24 | 193 | 30.6 | 49.9 | 0.00 | 0.00 | 0.00 | 57 | 1009.9 |
| 20260504181002 | 24 | 220 | 46.7 | 49.9 | 0.00 | 0.00 | 0.00 | 58 | 1009.9 |
| 20260504180501 | 23 | 196 | 22.5 | 45.1 | 0.00 | 0.00 | 0.00 | 58 | 1010.1 |
| 20260504180000 | 23 | 203 | 22.5 | 40.2 | 0.00 | 0.00 | 0.00 | 60 | 1010.2 |
| 20260504175000 | 23 | 196 | 29.0 | 38.6 | 0.00 | 0.00 | 0.00 | 58 | 1010.4 |
| 20260504174501 | 23 | 197 | 24.1 | 38.6 | 0.00 | 0.00 | 0.00 | 59 | 1010.5 |
| 20260504173501 | 23 | 0 | 0.0 | 37.0 | 0.00 | 0.00 | 0.00 | 59 | 1010.4 |
| 20260504173000 | 23 | 185 | 22.5 | 32.2 | 0.00 | 0.00 | 0.00 | 61 | 1010.4 |
| 20260504172503 | 23 | 178 | 17.7 | 43.5 | 0.00 | 0.00 | 0.00 | 60 | 1010.6 |
| 20260504172000 | 23 | 202 | 20.9 | 43.5 | 0.00 | 0.00 | 0.00 | 60 | 1010.6 |
| 20260504171500 | 22 | 204 | 30.6 | 37.0 | 0.00 | 0.00 | 0.00 | 61 | 1010.7 |
| 20260504171000 | 22 | 212 | 30.6 | 37.0 | 0.00 | 0.00 | 0.00 | 62 | 1010.7 |
| 20260504170501 | 22 | 190 | 25.7 | 37.0 | 0.00 | 0.00 | 0.00 | 62 | 1010.8 |
| 20260504151030 | 21 | 210 | 33.8 | 40.2 | 0.00 | 0.00 | 0.00 | 62 | 1011.9 |
| 20260504150531 | 21 | 197 | 17.7 | 37.0 | 0.00 | 0.00 | 0.00 | 62 | 1012.0 |
| 20260504141000 | 19 | 202 | 17.7 | 33.8 | 0.00 | 0.00 | 0.00 | 70 | 1012.3 |
| 20260504140500 | 19 | 197 | 20.9 | 33.8 | 0.00 | 0.00 | 0.00 | 69 | 1012.2 |